Time,TemperatureF,DewpointF,PressureIn,WindDirection,WindDirectionDegrees,WindSpeedMPH,WindSpeedGustMPH,Humidity,HourlyPrecipIn,Conditions,Clouds,dailyrainin,SoftwareType,DateUTC
2013-06-11 00:02:00,88.4,28.5,29.91,WNW,293,9.6,9.6,12,0.00,,,0.00,WUHU216HW,2013-06-11 07:02:00,
2013-06-11 00:07:00,88.4,26.7,29.92,West,270,7.6,9.8,11,0.00,,,0.00,WUHU216HW,2013-06-11 07:07:00,
2013-06-11 00:12:00,88.6,26.9,29.92,WNW,293,5.4,9.8,11,0.00,,,0.00,WUHU216HW,2013-06-11 07:12:00,
2013-06-11 00:17:00,88.4,26.7,29.92,NW,315,4.5,9.8,11,0.00,,,0.00,WUHU216HW,2013-06-11 07:17:00,
2013-06-11 00:22:00,88.2,26.6,29.91,NNW,338,5.4,8.7,11,0.00,,,0.00,WUHU216HW,2013-06-11 07:22:00,
2013-06-11 00:27:00,88.2,26.6,29.91,NNW,338,4.7,6.7,11,0.00,,,0.00,WUHU216HW,2013-06-11 07:27:00,
2013-06-11 00:32:00,88.9,27.2,29.90,WNW,293,9.2,10.1,11,0.00,,,0.00,WUHU216HW,2013-06-11 07:32:00,
2013-06-11 00:37:00,89.5,25.8,29.90,NNW,338,7.2,11.2,10,0.00,,,0.00,WUHU216HW,2013-06-11 07:37:00,
2013-06-11 00:42:00,89.6,25.9,29.90,NW,315,3.1,13.0,9,0.00,,,0.00,WUHU216HW,2013-06-11 07:42:00,
2013-06-11 00:47:00,89.6,25.9,29.90,West,270,7.6,13.0,8,0.00,,,0.00,WUHU216HW,2013-06-11 07:47:00,
2013-06-11 00:52:00,89.5,25.8,29.90,North,0,7.2,9.8,8,0.00,,,0.00,WUHU216HW,2013-06-11 07:52:00,
2013-06-11 00:57:00,89.3,25.7,29.90,NW,315,5.8,10.5,8,0.00,,,0.00,WUHU216HW,2013-06-11 07:57:00,
2013-06-11 01:02:00,89.1,25.6,29.91,NNW,338,3.6,12.5,8,0.00,,,0.00,WUHU216HW,2013-06-11 08:02:00,
2013-06-11 01:07:00,88.9,25.4,29.91,North,0,7.4,12.5,8,0.00,,,0.00,WUHU216HW,2013-06-11 08:07:00,
2013-06-11 01:12:00,88.9,25.4,29.91,NNW,338,6.0,11.0,8,0.00,,,0.00,WUHU216HW,2013-06-11 08:12:00,
2013-06-11 01:17:00,88.6,25.2,29.91,North,0,6.0,9.2,8,0.00,,,0.00,WUHU216HW,2013-06-11 08:17:00,
2013-06-11 01:22:00,88.4,25.0,29.91,NNW,338,2.9,8.7,8,0.00,,,0.00,WUHU216HW,2013-06-11 08:22:00,
2013-06-11 01:27:00,88.2,24.9,29.91,North,0,3.8,7.6,8,0.00,,,0.00,WUHU216HW,2013-06-11 08:27:00,
2013-06-11 01:32:00,87.8,24.7,29.91,NNW,338,2.9,4.9,8,0.00,,,0.00,WUHU216HW,2013-06-11 08:32:00,
2013-06-11 01:37:00,87.7,24.5,29.91,NNW,338,4.7,5.4,8,0.00,,,0.00,WUHU216HW,2013-06-11 08:37:00,
2013-06-11 01:42:00,87.8,24.7,29.91,NE,45,2.7,6.3,8,0.00,,,0.00,WUHU216HW,2013-06-11 08:42:00,
2013-06-11 01:47:00,87.8,24.7,29.91,NNE,23,3.4,6.3,8,0.00,,,0.00,WUHU216HW,2013-06-11 08:47:00,
2013-06-11 01:52:00,87.7,24.5,29.91,NNE,23,1.3,3.4,8,0.00,,,0.00,WUHU216HW,2013-06-11 08:52:00,
2013-06-11 01:57:00,86.9,23.9,29.92,North,0,0.2,3.1,9,0.00,,,0.00,WUHU216HW,2013-06-11 08:57:00,
2013-06-11 02:02:00,86.4,23.5,29.91,North,0,2.2,3.1,10,0.00,,,0.00,WUHU216HW,2013-06-11 09:02:00,
2013-06-11 02:07:00,86.4,23.5,29.91,NNE,23,0.7,4.0,10,0.00,,,0.00,WUHU216HW,2013-06-11 09:07:00,
2013-06-11 02:12:00,86.2,23.4,29.91,NW,315,2.2,4.0,10,0.00,,,0.00,WUHU216HW,2013-06-11 09:12:00,
2013-06-11 02:17:00,85.9,23.0,29.91,NNW,338,2.2,3.1,10,0.00,,,0.00,WUHU216HW,2013-06-11 09:17:00,
2013-06-11 02:22:00,85.5,22.8,29.91,North,0,2.9,4.0,10,0.00,,,0.00,WUHU216HW,2013-06-11 09:22:00,
2013-06-11 02:27:00,85.9,23.0,29.91,North,0,5.1,6.9,10,0.00,,,0.00,WUHU216HW,2013-06-11 09:27:00,
2013-06-11 02:32:00,86.2,23.4,29.91,NNW,338,3.4,6.9,10,0.00,,,0.00,WUHU216HW,2013-06-11 09:32:00,
2013-06-11 02:37:00,86.4,23.5,29.91,NNW,338,1.8,5.4,10,0.00,,,0.00,WUHU216HW,2013-06-11 09:37:00,
2013-06-11 02:42:00,86.0,23.2,29.91,North,0,2.5,5.4,9,0.00,,,0.00,WUHU216HW,2013-06-11 09:42:00,
2013-06-11 02:47:00,85.7,23.0,29.91,WNW,293,3.4,3.4,8,0.00,,,0.00,WUHU216HW,2013-06-11 09:47:00,
2013-06-11 02:52:00,85.9,23.0,29.90,NNW,338,2.9,5.8,8,0.00,,,0.00,WUHU216HW,2013-06-11 09:52:00,
2013-06-11 02:57:00,85.9,23.0,29.90,NW,315,2.7,5.8,8,0.00,,,0.00,WUHU216HW,2013-06-11 09:57:00,
2013-06-11 03:02:00,85.5,22.8,29.90,NW,315,1.8,3.8,8,0.00,,,0.00,WUHU216HW,2013-06-11 10:02:00,
2013-06-11 03:07:00,85.1,22.5,29.90,NW,315,1.8,3.4,8,0.00,,,0.00,WUHU216HW,2013-06-11 10:07:00,
2013-06-11 03:12:00,84.6,22.1,29.90,West,270,0.4,3.4,8,0.00,,,0.00,WUHU216HW,2013-06-11 10:12:00,
2013-06-11 03:17:00,84.1,21.7,29.90,SSE,158,1.6,2.5,8,0.00,,,0.00,WUHU216HW,2013-06-11 10:17:00,
2013-06-11 03:22:00,83.2,21.1,29.90,ESE,113,2.7,3.4,8,0.00,,,0.00,WUHU216HW,2013-06-11 10:22:00,
2013-06-11 03:27:00,82.4,20.5,29.91,ESE,113,1.8,3.4,10,0.00,,,0.00,WUHU216HW,2013-06-11 10:27:00,
2013-06-11 03:32:00,81.9,21.8,29.91,ESE,113,3.4,3.8,11,0.00,,,0.00,WUHU216HW,2013-06-11 10:32:00,
2013-06-11 03:37:00,81.2,22.9,29.91,East,90,2.0,3.8,12,0.00,,,0.00,WUHU216HW,2013-06-11 10:37:00,
2013-06-11 03:42:00,80.8,22.6,29.91,SE,135,2.0,4.5,12,0.00,,,0.00,WUHU216HW,2013-06-11 10:42:00,
2013-06-11 03:47:00,80.3,23.9,29.91,East,90,4.0,4.5,13,0.00,,,0.00,WUHU216HW,2013-06-11 10:47:00,
2013-06-11 03:52:00,79.9,23.6,29.92,East,90,2.2,4.7,13,0.00,,,0.00,WUHU216HW,2013-06-11 10:52:00,
2013-06-11 03:57:00,79.6,23.2,29.92,East,90,3.4,4.7,13,0.00,,,0.00,WUHU216HW,2013-06-11 10:57:00,
2013-06-11 04:02:00,79.2,26.3,29.92,East,90,2.9,4.7,15,0.00,,,0.00,WUHU216HW,2013-06-11 11:02:00,
2013-06-11 04:07:00,78.8,26.0,29.92,ESE,113,3.4,4.7,15,0.00,,,0.00,WUHU216HW,2013-06-11 11:07:00,
2013-06-11 04:12:00,78.5,25.7,29.92,ESE,113,3.4,4.3,15,0.00,,,0.00,WUHU216HW,2013-06-11 11:12:00,
2013-06-11 04:17:00,78.1,25.5,29.93,East,90,5.4,6.3,15,0.00,,,0.00,WUHU216HW,2013-06-11 11:17:00,
2013-06-11 04:22:00,78.1,25.5,29.93,East,90,6.3,7.8,15,0.00,,,0.00,WUHU216HW,2013-06-11 11:22:00,
2013-06-11 04:27:00,78.1,25.5,29.93,East,90,4.0,7.8,15,0.00,,,0.00,WUHU216HW,2013-06-11 11:27:00,
2013-06-11 04:32:00,78.1,25.5,29.93,ESE,113,5.1,7.4,15,0.00,,,0.00,WUHU216HW,2013-06-11 11:32:00,
2013-06-11 04:37:00,77.9,25.4,29.93,NE,45,6.3,7.4,15,0.00,,,0.00,WUHU216HW,2013-06-11 11:37:00,
2013-06-11 04:42:00,77.8,25.2,29.93,ESE,113,4.7,7.6,15,0.00,,,0.00,WUHU216HW,2013-06-11 11:42:00,
2013-06-11 04:47:00,77.4,26.6,29.93,East,90,3.4,7.6,16,0.00,,,0.00,WUHU216HW,2013-06-11 11:47:00,
2013-06-11 04:52:00,77.2,26.5,29.94,ESE,113,3.6,6.7,16,0.00,,,0.00,WUHU216HW,2013-06-11 11:52:00,
2013-06-11 04:57:00,77.0,26.3,29.94,SE,135,5.4,6.9,16,0.00,,,0.00,WUHU216HW,2013-06-11 11:57:00,
2013-06-11 05:02:00,76.7,26.0,29.94,East,90,6.7,7.4,16,0.00,,,0.00,WUHU216HW,2013-06-11 12:02:00,
2013-06-11 05:07:00,76.7,26.0,29.94,ESE,113,5.1,7.4,16,0.00,,,0.00,WUHU216HW,2013-06-11 12:07:00,
2013-06-11 05:12:00,76.5,25.9,29.94,East,90,3.8,7.4,16,0.00,,,0.00,WUHU216HW,2013-06-11 12:12:00,
2013-06-11 05:17:00,76.3,27.4,29.93,ESE,113,4.3,5.8,17,0.00,,,0.00,WUHU216HW,2013-06-11 12:17:00,
2013-06-11 05:22:00,76.1,27.3,29.93,East,90,4.0,5.8,17,0.00,,,0.00,WUHU216HW,2013-06-11 12:22:00,
2013-06-11 05:27:00,76.1,27.3,29.93,ESE,113,3.4,5.8,17,0.00,,,0.00,WUHU216HW,2013-06-11 12:27:00,
2013-06-11 05:32:00,76.0,27.1,29.93,East,90,5.4,5.4,17,0.00,,,0.00,WUHU216HW,2013-06-11 12:32:00,
2013-06-11 05:37:00,76.1,27.3,29.93,ENE,68,4.7,5.4,17,0.00,,,0.00,WUHU216HW,2013-06-11 12:37:00,
2013-06-11 05:42:00,76.1,27.3,29.93,ESE,113,5.6,5.6,17,0.00,,,0.00,WUHU216HW,2013-06-11 12:42:00,
2013-06-11 05:47:00,76.3,25.7,29.94,ENE,68,4.3,5.8,16,0.00,,,0.00,WUHU216HW,2013-06-11 12:47:00,
2013-06-11 05:52:00,76.5,25.9,29.94,ENE,68,4.7,5.8,16,0.00,,,0.00,WUHU216HW,2013-06-11 12:52:00,
2013-06-11 05:57:00,76.7,26.0,29.94,East,90,4.0,6.3,16,0.00,,,0.00,WUHU216HW,2013-06-11 12:57:00,
2013-06-11 06:02:00,76.7,26.0,29.94,East,90,3.6,6.3,16,0.00,,,0.00,WUHU216HW,2013-06-11 13:02:00,
2013-06-11 06:07:00,76.7,26.0,29.95,East,90,5.4,5.4,16,0.00,,,0.00,WUHU216HW,2013-06-11 13:07:00,
2013-06-11 06:12:00,76.7,26.0,29.95,East,90,3.4,5.4,16,0.00,,,0.00,WUHU216HW,2013-06-11 13:12:00,
2013-06-11 06:17:00,76.7,27.7,29.95,East,90,4.3,5.4,17,0.00,,,0.00,WUHU216HW,2013-06-11 13:17:00,
2013-06-11 06:22:00,77.0,28.0,29.95,SE,135,3.4,6.5,17,0.00,,,0.00,WUHU216HW,2013-06-11 13:22:00,
2013-06-11 06:27:00,77.0,28.0,29.95,SE,135,3.6,6.5,17,0.00,,,0.00,WUHU216HW,2013-06-11 13:27:00,
2013-06-11 06:32:00,77.4,28.3,29.95,East,90,5.6,6.3,17,0.00,,,0.00,WUHU216HW,2013-06-11 13:32:00,
2013-06-11 06:37:00,77.4,28.3,29.96,ESE,113,3.4,6.3,17,0.00,,,0.00,WUHU216HW,2013-06-11 13:37:00,
2013-06-11 06:42:00,77.8,28.5,29.96,East,90,3.4,5.8,17,0.00,,,0.00,WUHU216HW,2013-06-11 13:42:00,
2013-06-11 06:47:00,77.9,28.6,29.95,ENE,68,4.3,5.8,17,0.00,,,0.00,WUHU216HW,2013-06-11 13:47:00,
2013-06-11 06:52:00,78.1,28.8,29.96,ESE,113,4.3,5.8,17,0.00,,,0.00,WUHU216HW,2013-06-11 13:52:00,
2013-06-11 06:57:00,78.5,29.1,29.96,ESE,113,1.8,5.4,17,0.00,,,0.00,WUHU216HW,2013-06-11 13:57:00,
2013-06-11 07:02:00,78.5,29.1,29.96,NE,45,2.2,5.4,17,0.00,,,0.00,WUHU216HW,2013-06-11 14:02:00,
2013-06-11 07:07:00,78.7,29.3,29.96,East,90,2.5,4.0,17,0.00,,,0.00,WUHU216HW,2013-06-11 14:07:00,
2013-06-11 07:12:00,78.8,29.3,29.96,ESE,113,3.8,4.3,17,0.00,,,0.00,WUHU216HW,2013-06-11 14:12:00,
2013-06-11 07:17:00,79.2,29.7,29.96,ESE,113,3.8,5.6,17,0.00,,,0.00,WUHU216HW,2013-06-11 14:17:00,
2013-06-11 07:22:00,79.6,30.0,29.96,SE,135,5.8,6.9,17,0.00,,,0.00,WUHU216HW,2013-06-11 14:22:00,
2013-06-11 07:27:00,79.9,30.3,29.96,ESE,113,4.7,6.9,17,0.00,,,0.00,WUHU216HW,2013-06-11 14:27:00,
2013-06-11 07:32:00,80.3,30.6,29.97,SE,135,5.8,6.9,17,0.00,,,0.00,WUHU216HW,2013-06-11 14:32:00,
2013-06-11 07:37:00,80.6,31.0,29.97,ESE,113,2.5,7.4,17,0.00,,,0.00,WUHU216HW,2013-06-11 14:37:00,
2013-06-11 07:42:00,81.0,31.2,29.97,SSE,158,4.7,7.4,17,0.00,,,0.00,WUHU216HW,2013-06-11 14:42:00,
2013-06-11 07:47:00,81.0,29.5,29.97,SE,135,4.7,6.0,16,0.00,,,0.00,WUHU216HW,2013-06-11 14:47:00,
2013-06-11 07:52:00,81.4,31.5,29.96,SSW,203,3.4,6.0,17,0.00,,,0.00,WUHU216HW,2013-06-11 14:52:00,
2013-06-11 07:57:00,81.5,30.0,29.96,SSW,203,2.2,5.1,16,0.00,,,0.00,WUHU216HW,2013-06-11 14:57:00,
2013-06-11 08:02:00,81.9,30.2,29.95,SSE,158,2.2,4.0,16,0.00,,,0.00,WUHU216HW,2013-06-11 15:02:00,
2013-06-11 08:07:00,82.3,30.5,29.96,South,180,1.6,4.5,16,0.00,,,0.00,WUHU216HW,2013-06-11 15:07:00,
2013-06-11 08:12:00,82.8,31.0,29.96,WSW,248,4.0,4.9,16,0.00,,,0.00,WUHU216HW,2013-06-11 15:12:00,
2013-06-11 08:17:00,83.3,31.3,29.96,SW,225,2.5,4.9,16,0.00,,,0.00,WUHU216HW,2013-06-11 15:17:00,
2013-06-11 08:22:00,83.7,31.6,29.96,SSW,203,0.9,4.3,16,0.00,,,0.00,WUHU216HW,2013-06-11 15:22:00,
2013-06-11 08:27:00,84.1,30.2,29.97,WSW,248,2.5,3.6,15,0.00,,,0.00,WUHU216HW,2013-06-11 15:27:00,
2013-06-11 08:32:00,84.2,30.3,29.97,SSW,203,0.2,3.4,15,0.00,,,0.00,WUHU216HW,2013-06-11 15:32:00,
2013-06-11 08:37:00,84.8,30.8,29.97,WSW,248,3.6,4.0,15,0.00,,,0.00,WUHU216HW,2013-06-11 15:37:00,
2013-06-11 08:42:00,85.3,29.5,29.97,West,270,1.6,4.0,14,0.00,,,0.00,WUHU216HW,2013-06-11 15:42:00,
2013-06-11 08:47:00,85.7,28.1,29.97,WNW,293,0.4,3.6,13,0.00,,,0.00,WUHU216HW,2013-06-11 15:47:00,
2013-06-11 08:52:00,86.0,28.4,29.97,SSW,203,1.8,2.7,13,0.00,,,0.00,WUHU216HW,2013-06-11 15:52:00,
2013-06-11 08:57:00,86.4,28.6,29.97,NW,315,1.1,3.4,13,0.00,,,0.00,WUHU216HW,2013-06-11 15:57:00,
2013-06-11 09:02:00,86.8,29.0,29.97,SSW,203,2.2,4.5,13,0.00,,,0.00,WUHU216HW,2013-06-11 16:02:00,
2013-06-11 09:07:00,86.8,29.0,29.97,NW,315,2.0,4.5,13,0.00,,,0.00,WUHU216HW,2013-06-11 16:07:00,
2013-06-11 09:12:00,87.3,29.4,29.97,WSW,248,0.4,4.7,13,0.00,,,0.00,WUHU216HW,2013-06-11 16:12:00,
2013-06-11 09:17:00,87.8,29.9,29.96,West,270,3.8,4.7,13,0.00,,,0.00,WUHU216HW,2013-06-11 16:17:00,
2013-06-11 09:22:00,88.4,28.5,29.96,ENE,68,0.7,4.3,12,0.00,,,0.00,WUHU216HW,2013-06-11 16:22:00,
2013-06-11 09:27:00,88.4,28.5,29.96,SSW,203,1.3,4.3,12,0.00,,,0.00,WUHU216HW,2013-06-11 16:27:00,
2013-06-11 09:32:00,88.9,28.9,29.95,WSW,248,2.2,4.7,12,0.00,,,0.00,WUHU216HW,2013-06-11 16:32:00,
2013-06-11 09:37:00,89.3,29.2,29.96,SE,135,1.6,4.7,12,0.00,,,0.00,WUHU216HW,2013-06-11 16:37:00,
2013-06-11 09:42:00,89.5,29.3,29.96,WSW,248,2.5,4.3,12,0.00,,,0.00,WUHU216HW,2013-06-11 16:42:00,
2013-06-11 09:47:00,90.0,28.0,29.96,WSW,248,1.8,4.3,11,0.00,,,0.00,WUHU216HW,2013-06-11 16:47:00,
2013-06-11 09:52:00,90.4,28.3,29.97,SW,225,2.7,4.7,11,0.00,,,0.00,WUHU216HW,2013-06-11 16:52:00,
2013-06-11 09:57:00,90.9,28.7,29.97,SW,225,4.0,4.7,11,0.00,,,0.00,WUHU216HW,2013-06-11 16:57:00,
2013-06-11 10:02:00,91.3,29.0,29.97,SSW,203,3.4,5.4,11,0.00,,,0.00,WUHU216HW,2013-06-11 17:02:00,
2013-06-11 10:07:00,91.6,29.3,29.97,North,0,1.1,5.4,11,0.00,,,0.00,WUHU216HW,2013-06-11 17:07:00,
2013-06-11 10:12:00,92.0,29.5,29.98,South,180,1.3,5.4,11,0.00,,,0.00,WUHU216HW,2013-06-11 17:12:00,
2013-06-11 10:17:00,92.3,28.0,29.97,West,270,3.4,5.4,10,0.00,,,0.00,WUHU216HW,2013-06-11 17:17:00,
2013-06-11 10:22:00,92.9,28.4,29.97,WSW,248,4.5,6.3,10,0.00,,,0.00,WUHU216HW,2013-06-11 17:22:00,
2013-06-11 10:27:00,93.4,28.8,29.96,SSE,158,2.9,6.3,10,0.00,,,0.00,WUHU216HW,2013-06-11 17:27:00,
2013-06-11 10:32:00,94.0,29.2,29.96,WSW,248,4.7,5.8,10,0.00,,,0.00,WUHU216HW,2013-06-11 17:32:00,
2013-06-11 10:37:00,95.0,30.1,29.96,ESE,113,1.1,8.1,8,0.00,,,0.00,WUHU216HW,2013-06-11 17:37:00,
2013-06-11 10:42:00,96.5,31.1,29.95,SSW,203,5.1,8.1,8,0.00,,,0.00,WUHU216HW,2013-06-11 17:42:00,
2013-06-11 10:47:00,97.6,31.9,29.96,West,270,3.6,7.8,7,0.00,,,0.00,WUHU216HW,2013-06-11 17:47:00,
2013-06-11 10:52:00,99.0,33.0,29.96,WNW,293,4.0,7.8,6,0.00,,,0.00,WUHU216HW,2013-06-11 17:52:00,
2013-06-11 10:57:00,99.4,33.3,29.96,SW,225,3.6,8.1,6,0.00,,,0.00,WUHU216HW,2013-06-11 17:57:00,
2013-06-11 11:02:00,99.7,33.7,29.96,WSW,248,9.8,9.8,6,0.00,,,0.00,WUHU216HW,2013-06-11 18:02:00,
2013-06-11 11:07:00,100.1,33.9,29.96,WSW,248,7.6,9.8,5,0.00,,,0.00,WUHU216HW,2013-06-11 18:07:00,
2013-06-11 11:12:00,100.4,34.2,29.96,WNW,293,7.4,9.8,5,0.00,,,0.00,WUHU216HW,2013-06-11 18:12:00,
2013-06-11 11:17:00,100.8,34.5,29.96,West,270,10.1,11.0,5,0.00,,,0.00,WUHU216HW,2013-06-11 18:17:00,
2013-06-11 11:22:00,101.0,34.6,29.96,WSW,248,9.8,11.0,5,0.00,,,0.00,WUHU216HW,2013-06-11 18:22:00,
2013-06-11 11:27:00,101.2,34.8,29.97,West,270,9.2,10.5,5,0.00,,,0.00,WUHU216HW,2013-06-11 18:27:00,
2013-06-11 11:32:00,101.0,34.6,29.96,WNW,293,8.1,11.4,5,0.00,,,0.00,WUHU216HW,2013-06-11 18:32:00,
2013-06-11 11:37:00,100.6,34.3,29.96,West,270,6.3,11.4,5,0.00,,,0.00,WUHU216HW,2013-06-11 18:37:00,
2013-06-11 11:42:00,100.4,34.2,29.95,West,270,7.6,10.5,5,0.00,,,0.00,WUHU216HW,2013-06-11 18:42:00,
2013-06-11 11:47:00,100.3,34.0,29.95,WNW,293,11.9,12.1,5,0.00,,,0.00,WUHU216HW,2013-06-11 18:47:00,
2013-06-11 11:52:00,100.4,34.2,29.95,WNW,293,6.3,12.1,5,0.00,,,0.00,WUHU216HW,2013-06-11 18:52:00,
2013-06-11 11:57:00,100.8,34.5,29.94,NW,315,3.8,11.9,5,0.00,,,0.00,WUHU216HW,2013-06-11 18:57:00,
2013-06-11 12:02:00,101.3,34.8,29.95,NW,315,9.2,12.1,5,0.00,,,0.00,WUHU216HW,2013-06-11 19:02:00,
2013-06-11 12:07:00,101.2,34.8,29.95,NW,315,6.0,12.1,5,0.00,,,0.00,WUHU216HW,2013-06-11 19:07:00,
2013-06-11 12:12:00,101.5,34.9,29.95,West,270,5.4,9.6,5,0.00,,,0.00,WUHU216HW,2013-06-11 19:12:00,
2013-06-11 12:17:00,101.7,35.1,29.95,WSW,248,6.9,9.6,5,0.00,,,0.00,WUHU216HW,2013-06-11 19:17:00,
2013-06-11 12:22:00,101.9,35.2,29.95,WNW,293,9.2,11.9,5,0.00,,,0.00,WUHU216HW,2013-06-11 19:22:00,
2013-06-11 12:27:00,102.1,35.4,29.95,SW,225,3.4,11.9,5,0.00,,,0.00,WUHU216HW,2013-06-11 19:27:00,
2013-06-11 12:32:00,102.6,35.7,29.95,NW,315,10.5,11.4,5,0.00,,,0.00,WUHU216HW,2013-06-11 19:32:00,
2013-06-11 12:37:00,102.6,35.7,29.95,West,270,6.9,12.1,5,0.00,,,0.00,WUHU216HW,2013-06-11 19:37:00,
2013-06-11 12:42:00,102.8,35.9,29.95,NW,315,11.4,12.1,5,0.00,,,0.00,WUHU216HW,2013-06-11 19:42:00,
2013-06-11 12:47:00,103.0,36.0,29.95,WSW,248,10.5,11.4,3,0.00,,,0.00,WUHU216HW,2013-06-11 19:47:00,
2013-06-11 12:52:00,103.1,36.2,29.95,WSW,248,10.3,13.4,3,0.00,,,0.00,WUHU216HW,2013-06-11 19:52:00,
2013-06-11 12:57:00,103.0,36.0,29.94,NNW,338,9.2,13.4,3,0.00,,,0.00,WUHU216HW,2013-06-11 19:57:00,
2013-06-11 13:02:00,103.3,36.4,29.94,West,270,9.6,12.8,3,0.00,,,0.00,WUHU216HW,2013-06-11 20:02:00,
2013-06-11 13:07:00,103.3,36.4,29.93,West,270,13.4,13.4,3,0.00,,,0.00,WUHU216HW,2013-06-11 20:07:00,
2013-06-11 13:12:00,103.7,36.6,29.93,West,270,7.6,13.4,3,0.00,,,0.00,WUHU216HW,2013-06-11 20:12:00,
2013-06-11 13:17:00,104.2,37.0,29.93,WSW,248,5.6,13.4,3,0.00,,,0.00,WUHU216HW,2013-06-11 20:17:00,
2013-06-11 13:22:00,104.2,37.0,29.93,WNW,293,9.6,13.4,3,0.00,,,0.00,WUHU216HW,2013-06-11 20:22:00,
2013-06-11 13:27:00,104.0,36.9,29.93,WNW,293,7.8,13.4,3,0.00,,,0.00,WUHU216HW,2013-06-11 20:27:00,
2013-06-11 13:32:00,104.0,36.9,29.93,NNW,338,11.0,13.6,3,0.00,,,0.00,WUHU216HW,2013-06-11 20:32:00,
2013-06-11 13:37:00,104.4,37.2,29.93,WSW,248,13.2,15.0,3,0.00,,,0.00,WUHU216HW,2013-06-11 20:37:00,
2013-06-11 13:42:00,104.8,37.5,29.93,WSW,248,7.8,15.0,3,0.00,,,0.00,WUHU216HW,2013-06-11 20:42:00,
2013-06-11 13:47:00,104.9,37.5,29.94,WNW,293,9.2,12.8,3,0.00,,,0.00,WUHU216HW,2013-06-11 20:47:00,
2013-06-11 13:52:00,104.8,37.5,29.94,WSW,248,10.5,11.4,3,0.00,,,0.00,WUHU216HW,2013-06-11 20:52:00,
2013-06-11 13:57:00,105.5,37.9,29.93,WSW,248,9.8,11.4,3,0.00,,,0.00,WUHU216HW,2013-06-11 20:57:00,
2013-06-11 14:02:00,106.4,38.6,29.93,NW,315,5.8,11.2,3,0.00,,,0.00,WUHU216HW,2013-06-11 21:02:00,
2013-06-11 14:07:00,106.2,38.4,29.93,West,270,6.9,10.5,2,0.00,,,0.00,WUHU216HW,2013-06-11 21:07:00,
2013-06-11 14:12:00,105.7,38.1,29.92,West,270,11.6,12.3,2,0.00,,,0.00,WUHU216HW,2013-06-11 21:12:00,
2013-06-11 14:17:00,105.1,37.6,29.92,NW,315,4.3,13.0,3,0.00,,,0.00,WUHU216HW,2013-06-11 21:17:00,
2013-06-11 14:22:00,105.5,37.9,29.91,WNW,293,9.6,13.0,3,0.00,,,0.00,WUHU216HW,2013-06-11 21:22:00,
2013-06-11 14:27:00,105.8,38.2,29.91,West,270,7.2,12.8,3,0.00,,,0.00,WUHU216HW,2013-06-11 21:27:00,
2013-06-11 14:32:00,105.8,38.2,29.91,West,270,6.3,15.0,2,0.00,,,0.00,WUHU216HW,2013-06-11 21:32:00,
2013-06-11 14:37:00,105.8,38.2,29.90,SSW,203,6.7,15.0,3,0.00,,,0.00,WUHU216HW,2013-06-11 21:37:00,
2013-06-11 14:42:00,106.0,38.4,29.90,WNW,293,9.8,15.0,3,0.00,,,0.00,WUHU216HW,2013-06-11 21:42:00,
2013-06-11 14:47:00,105.8,38.2,29.90,NW,315,11.2,15.2,3,0.00,,,0.00,WUHU216HW,2013-06-11 21:47:00,
2013-06-11 14:52:00,105.8,38.2,29.91,West,270,12.3,15.2,3,0.00,,,0.00,WUHU216HW,2013-06-11 21:52:00,
2013-06-11 14:57:00,106.2,38.4,29.91,West,270,14.3,14.3,3,0.00,,,0.00,WUHU216HW,2013-06-11 21:57:00,
2013-06-11 15:02:00,106.0,38.4,29.91,West,270,7.8,14.3,3,0.00,,,0.00,WUHU216HW,2013-06-11 22:02:00,
2013-06-11 15:07:00,106.0,38.4,29.91,WSW,248,8.1,14.3,3,0.00,,,0.00,WUHU216HW,2013-06-11 22:07:00,
2013-06-11 15:12:00,106.0,38.4,29.91,NW,315,8.7,14.5,2,0.00,,,0.00,WUHU216HW,2013-06-11 22:12:00,
2013-06-11 15:17:00,105.8,38.2,29.91,WSW,248,6.3,15.7,3,0.00,,,0.00,WUHU216HW,2013-06-11 22:17:00,
2013-06-11 15:22:00,105.8,38.2,29.90,West,270,10.1,15.7,3,0.00,,,0.00,WUHU216HW,2013-06-11 22:22:00,
2013-06-11 15:27:00,105.8,38.2,29.90,WNW,293,15.4,15.4,3,0.00,,,0.00,WUHU216HW,2013-06-11 22:27:00,
2013-06-11 15:32:00,105.8,38.2,29.89,WNW,293,16.6,16.6,3,0.00,,,0.00,WUHU216HW,2013-06-11 22:32:00,
2013-06-11 15:37:00,106.0,38.4,29.89,WSW,248,15.4,16.6,3,0.00,,,0.00,WUHU216HW,2013-06-11 22:37:00,
2013-06-11 15:42:00,106.2,38.4,29.89,West,270,10.5,16.6,3,0.00,,,0.00,WUHU216HW,2013-06-11 22:42:00,
2013-06-11 15:47:00,106.0,38.4,29.88,West,270,15.0,15.4,3,0.00,,,0.00,WUHU216HW,2013-06-11 22:47:00,
2013-06-11 15:52:00,106.0,38.4,29.88,WNW,293,11.4,15.0,3,0.00,,,0.00,WUHU216HW,2013-06-11 22:52:00,
2013-06-11 15:57:00,105.8,38.2,29.88,WNW,293,10.1,15.2,3,0.00,,,0.00,WUHU216HW,2013-06-11 22:57:00,
2013-06-11 16:02:00,105.8,38.2,29.89,WNW,293,11.2,17.0,3,0.00,,,0.00,WUHU216HW,2013-06-11 23:02:00,
2013-06-11 16:07:00,105.8,38.2,29.89,West,270,14.3,17.0,3,0.00,,,0.00,WUHU216HW,2013-06-11 23:07:00,
2013-06-11 16:12:00,106.0,38.4,29.89,WNW,293,14.8,16.1,3,0.00,,,0.00,WUHU216HW,2013-06-11 23:12:00,
2013-06-11 16:17:00,106.2,38.4,29.89,West,270,11.2,16.3,3,0.00,,,0.00,WUHU216HW,2013-06-11 23:17:00,
2013-06-11 16:22:00,106.2,38.4,29.90,WSW,248,7.6,16.3,3,0.00,,,0.00,WUHU216HW,2013-06-11 23:22:00,
2013-06-11 16:27:00,106.2,38.4,29.89,WNW,293,9.2,14.3,3,0.00,,,0.00,WUHU216HW,2013-06-11 23:27:00,
2013-06-11 16:32:00,106.6,38.7,29.89,NW,315,10.1,11.6,3,0.00,,,0.00,WUHU216HW,2013-06-11 23:32:00,
2013-06-11 16:37:00,106.2,38.4,29.88,WNW,293,12.1,15.7,3,0.00,,,0.00,WUHU216HW,2013-06-11 23:37:00,
2013-06-11 16:42:00,105.8,38.2,29.88,WNW,293,16.3,16.3,3,0.00,,,0.00,WUHU216HW,2013-06-11 23:42:00,
2013-06-11 16:47:00,105.7,38.1,29.88,NW,315,11.0,17.2,3,0.00,,,0.00,WUHU216HW,2013-06-11 23:47:00,
2013-06-11 16:52:00,105.8,38.2,29.88,NW,315,9.2,17.2,3,0.00,,,0.00,WUHU216HW,2013-06-11 23:52:00,
2013-06-11 16:57:00,106.2,38.4,29.87,WNW,293,7.6,15.0,3,0.00,,,0.00,WUHU216HW,2013-06-11 23:57:00,
2013-06-11 17:02:00,106.0,38.4,29.87,WNW,293,7.2,15.0,3,0.00,,,0.00,WUHU216HW,2013-06-12 00:02:00,
2013-06-11 17:07:00,105.8,38.2,29.87,WNW,293,12.3,14.3,3,0.00,,,0.00,WUHU216HW,2013-06-12 00:07:00,
2013-06-11 17:12:00,105.8,38.2,29.87,WSW,248,9.6,17.2,3,0.00,,,0.00,WUHU216HW,2013-06-12 00:12:00,
2013-06-11 17:17:00,106.0,38.4,29.87,NW,315,15.4,18.6,3,0.00,,,0.00,WUHU216HW,2013-06-12 00:17:00,
2013-06-11 17:22:00,105.8,38.2,29.88,WNW,293,9.6,18.6,3,0.00,,,0.00,WUHU216HW,2013-06-12 00:22:00,
2013-06-11 17:27:00,105.7,38.1,29.88,NW,315,8.7,18.3,3,0.00,,,0.00,WUHU216HW,2013-06-12 00:27:00,
2013-06-11 17:32:00,105.7,38.1,29.88,NNW,338,9.2,17.7,3,0.00,,,0.00,WUHU216HW,2013-06-12 00:32:00,
2013-06-11 17:37:00,105.7,38.1,29.88,West,270,10.5,17.7,3,0.00,,,0.00,WUHU216HW,2013-06-12 00:37:00,
2013-06-11 17:42:00,105.8,38.2,29.88,West,270,11.6,14.5,3,0.00,,,0.00,WUHU216HW,2013-06-12 00:42:00,
2013-06-11 17:47:00,105.8,38.2,29.87,WNW,293,13.4,13.4,3,0.00,,,0.00,WUHU216HW,2013-06-12 00:47:00,
2013-06-11 17:52:00,105.7,38.1,29.87,NW,315,14.3,15.4,3,0.00,,,0.00,WUHU216HW,2013-06-12 00:52:00,
2013-06-11 17:57:00,105.3,37.8,29.87,North,0,9.2,15.4,3,0.00,,,0.00,WUHU216HW,2013-06-12 00:57:00,
2013-06-11 18:02:00,105.5,37.9,29.87,NW,315,15.0,17.0,3,0.00,,,0.00,WUHU216HW,2013-06-12 01:02:00,
2013-06-11 18:07:00,105.3,37.8,29.87,NNW,338,9.4,17.0,3,0.00,,,0.00,WUHU216HW,2013-06-12 01:07:00,
2013-06-11 18:12:00,104.9,37.5,29.87,WNW,293,11.2,16.3,3,0.00,,,0.00,WUHU216HW,2013-06-12 01:12:00,
2013-06-11 18:17:00,104.9,37.5,29.88,WNW,293,9.2,16.3,3,0.00,,,0.00,WUHU216HW,2013-06-12 01:17:00,
2013-06-11 18:22:00,104.8,37.5,29.88,WSW,248,11.4,15.4,3,0.00,,,0.00,WUHU216HW,2013-06-12 01:22:00,
2013-06-11 18:27:00,104.0,36.9,29.88,West,270,12.1,16.1,5,0.00,,,0.00,WUHU216HW,2013-06-12 01:27:00,
2013-06-11 18:32:00,104.0,36.9,29.89,NW,315,12.8,16.1,5,0.00,,,0.00,WUHU216HW,2013-06-12 01:32:00,
2013-06-11 18:37:00,103.9,36.7,29.89,NW,315,11.4,16.3,5,0.00,,,0.00,WUHU216HW,2013-06-12 01:37:00,
2013-06-11 18:42:00,103.9,36.7,29.90,North,0,5.4,16.3,5,0.00,,,0.00,WUHU216HW,2013-06-12 01:42:00,
2013-06-11 18:47:00,103.9,36.7,29.89,NW,315,7.6,12.1,5,0.00,,,0.00,WUHU216HW,2013-06-12 01:47:00,
2013-06-11 18:52:00,103.7,36.6,29.89,West,270,9.2,12.1,5,0.00,,,0.00,WUHU216HW,2013-06-12 01:52:00,
2013-06-11 18:57:00,102.6,35.7,29.89,North,0,8.7,16.6,5,0.00,,,0.00,WUHU216HW,2013-06-12 01:57:00,
2013-06-11 19:02:00,101.2,34.8,29.89,NNW,338,9.8,16.6,6,0.00,,,0.00,WUHU216HW,2013-06-12 02:02:00,
2013-06-11 19:07:00,100.1,33.9,29.89,NNW,338,4.7,17.0,6,0.00,,,0.00,WUHU216HW,2013-06-12 02:07:00,
2013-06-11 19:12:00,99.4,33.3,29.89,NNW,338,6.7,17.0,6,0.00,,,0.00,WUHU216HW,2013-06-12 02:12:00,
2013-06-11 19:17:00,98.6,32.8,29.88,NNW,338,8.7,13.6,6,0.00,,,0.00,WUHU216HW,2013-06-12 02:17:00,
2013-06-11 19:22:00,98.3,32.5,29.89,NW,315,9.2,14.1,6,0.00,,,0.00,WUHU216HW,2013-06-12 02:22:00,
2013-06-11 19:27:00,97.9,32.2,29.89,NNW,338,7.2,14.1,7,0.00,,,0.00,WUHU216HW,2013-06-12 02:27:00,
2013-06-11 19:32:00,97.6,31.9,29.90,NNE,23,11.2,12.1,7,0.00,,,0.00,WUHU216HW,2013-06-12 02:32:00,
2013-06-11 19:37:00,97.4,31.8,29.90,NNE,23,10.1,15.0,7,0.00,,,0.00,WUHU216HW,2013-06-12 02:37:00,
2013-06-11 19:42:00,97.2,31.6,29.91,NNW,338,8.7,15.0,7,0.00,,,0.00,WUHU216HW,2013-06-12 02:42:00,
2013-06-11 19:47:00,97.0,31.5,29.91,NNW,338,9.2,13.0,7,0.00,,,0.00,WUHU216HW,2013-06-12 02:47:00,
2013-06-11 19:52:00,96.8,31.3,29.91,NNW,338,8.5,13.0,7,0.00,,,0.00,WUHU216HW,2013-06-12 02:52:00,
2013-06-11 19:57:00,96.8,31.3,29.90,NNW,338,12.1,14.3,7,0.00,,,0.00,WUHU216HW,2013-06-12 02:57:00,
2013-06-11 20:02:00,96.8,31.3,29.90,NW,315,16.3,16.3,7,0.00,,,0.00,WUHU216HW,2013-06-12 03:02:00,
2013-06-11 20:07:00,96.7,31.2,29.90,NNE,23,8.7,16.3,7,0.00,,,0.00,WUHU216HW,2013-06-12 03:07:00,
2013-06-11 20:12:00,96.5,31.1,29.89,NNW,338,6.7,16.3,7,0.00,,,0.00,WUHU216HW,2013-06-12 03:12:00,
2013-06-11 20:17:00,96.3,31.0,29.89,NNW,338,8.3,13.9,7,0.00,,,0.00,WUHU216HW,2013-06-12 03:17:00,
2013-06-11 20:22:00,96.1,30.8,29.89,NNW,338,12.1,15.4,7,0.00,,,0.00,WUHU216HW,2013-06-12 03:22:00,
2013-06-11 20:27:00,96.1,30.8,29.89,North,0,9.6,15.4,7,0.00,,,0.00,WUHU216HW,2013-06-12 03:27:00,
2013-06-11 20:32:00,95.9,30.7,29.89,NNW,338,8.5,17.2,8,0.00,,,0.00,WUHU216HW,2013-06-12 03:32:00,
2013-06-11 20:37:00,95.9,30.7,29.90,North,0,6.3,17.2,8,0.00,,,0.00,WUHU216HW,2013-06-12 03:37:00,
2013-06-11 20:42:00,95.8,30.6,29.91,North,0,10.1,13.2,8,0.00,,,0.00,WUHU216HW,2013-06-12 03:42:00,
2013-06-11 20:47:00,95.8,30.6,29.92,North,0,12.8,15.0,8,0.00,,,0.00,WUHU216HW,2013-06-12 03:47:00,
2013-06-11 20:52:00,95.8,30.6,29.92,North,0,12.3,15.0,7,0.00,,,0.00,WUHU216HW,2013-06-12 03:52:00,
2013-06-11 20:57:00,95.8,30.6,29.93,NNW,338,11.4,17.9,7,0.00,,,0.00,WUHU216HW,2013-06-12 03:57:00,
2013-06-11 21:01:00,95.8,30.6,29.93,WNW,293,6.5,17.9,7,0.00,,,0.00,WUHU216HW,2013-06-12 04:01:00,
2013-06-11 21:06:00,95.6,30.4,29.93,NW,315,13.2,17.9,7,0.00,,,0.00,WUHU216HW,2013-06-12 04:06:00,
2013-06-11 21:11:00,95.6,30.4,29.93,North,0,9.2,17.4,8,0.00,,,0.00,WUHU216HW,2013-06-12 04:11:00,
2013-06-11 21:17:00,95.6,30.4,29.92,WNW,293,10.3,17.7,8,0.00,,,0.00,WUHU216HW,2013-06-12 04:17:00,
2013-06-11 21:22:00,95.4,30.3,29.91,NW,315,8.5,17.7,7,0.00,,,0.00,WUHU216HW,2013-06-12 04:22:00,
2013-06-11 21:27:00,95.2,30.2,29.91,NNW,338,13.0,14.5,8,0.00,,,0.00,WUHU216HW,2013-06-12 04:27:00,
2013-06-11 21:32:00,95.2,30.2,29.91,NNW,338,13.6,15.7,8,0.00,,,0.00,WUHU216HW,2013-06-12 04:32:00,
2013-06-11 21:37:00,95.0,30.1,29.91,NW,315,13.0,15.7,7,0.00,,,0.00,WUHU216HW,2013-06-12 04:37:00,
2013-06-11 21:42:00,95.0,30.1,29.91,NW,315,9.6,18.3,7,0.00,,,0.00,WUHU216HW,2013-06-12 04:42:00,
2013-06-11 21:47:00,94.9,29.9,29.91,North,0,11.0,18.3,8,0.00,,,0.00,WUHU216HW,2013-06-12 04:47:00,
2013-06-11 21:52:00,94.9,29.9,29.92,NNW,338,13.0,16.3,8,0.00,,,0.00,WUHU216HW,2013-06-12 04:52:00,
2013-06-11 21:57:00,94.7,29.8,29.93,North,0,4.7,16.3,7,0.00,,,0.00,WUHU216HW,2013-06-12 04:57:00,
2013-06-11 22:02:00,94.5,29.6,29.93,North,0,8.3,16.3,8,0.00,,,0.00,WUHU216HW,2013-06-12 05:02:00,
2013-06-11 22:07:00,94.3,29.5,29.94,North,0,8.7,12.1,8,0.00,,,0.00,WUHU216HW,2013-06-12 05:07:00,
2013-06-11 22:12:00,94.3,29.5,29.94,NNE,23,7.2,11.4,8,0.00,,,0.00,WUHU216HW,2013-06-12 05:12:00,
2013-06-11 22:17:00,94.3,29.5,29.94,NNW,338,6.9,10.7,8,0.00,,,0.00,WUHU216HW,2013-06-12 05:17:00,
2013-06-11 22:22:00,94.1,29.3,29.93,NNW,338,5.4,10.5,8,0.00,,,0.00,WUHU216HW,2013-06-12 05:22:00,
2013-06-11 22:27:00,94.0,29.2,29.93,North,0,7.6,13.6,8,0.00,,,0.00,WUHU216HW,2013-06-12 05:27:00,
2013-06-11 22:32:00,94.0,29.2,29.92,NNW,338,8.1,14.3,8,0.00,,,0.00,WUHU216HW,2013-06-12 05:32:00,
2013-06-11 22:37:00,94.0,29.2,29.92,NE,45,9.2,14.3,8,0.00,,,0.00,WUHU216HW,2013-06-12 05:37:00,
2013-06-11 22:42:00,94.0,29.2,29.91,North,0,12.3,14.8,8,0.00,,,0.00,WUHU216HW,2013-06-12 05:42:00,
2013-06-11 22:47:00,94.0,29.2,29.91,NNE,23,11.0,14.8,8,0.00,,,0.00,WUHU216HW,2013-06-12 05:47:00,
2013-06-11 22:52:00,94.0,29.2,29.93,NNW,338,6.0,13.0,8,0.00,,,0.00,WUHU216HW,2013-06-12 05:52:00,
2013-06-11 22:57:00,93.8,29.1,29.93,North,0,3.4,9.4,8,0.00,,,0.00,WUHU216HW,2013-06-12 05:57:00,
2013-06-11 23:02:00,93.6,28.9,29.93,North,0,6.0,12.8,9,0.00,,,0.00,WUHU216HW,2013-06-12 06:02:00,
2013-06-11 23:07:00,93.4,28.8,29.94,NNW,338,5.4,12.8,9,0.00,,,0.00,WUHU216HW,2013-06-12 06:07:00,
2013-06-11 23:12:00,93.4,28.8,29.94,NNE,23,6.9,10.3,10,0.00,,,0.00,WUHU216HW,2013-06-12 06:12:00,
2013-06-11 23:17:00,93.2,28.6,29.95,NNE,23,4.7,11.4,10,0.00,,,0.00,WUHU216HW,2013-06-12 06:17:00,
2013-06-11 23:22:00,93.4,28.8,29.95,NNW,338,7.8,14.5,10,0.00,,,0.00,WUHU216HW,2013-06-12 06:22:00,
2013-06-11 23:27:00,93.4,28.8,29.95,North,0,8.5,14.5,10,0.00,,,0.00,WUHU216HW,2013-06-12 06:27:00,
2013-06-11 23:32:00,93.2,28.6,29.95,North,0,4.5,10.5,10,0.00,,,0.00,WUHU216HW,2013-06-12 06:32:00,
2013-06-11 23:37:00,93.6,28.9,29.95,North,0,9.6,14.3,10,0.00,,,0.00,WUHU216HW,2013-06-12 06:37:00,
2013-06-11 23:42:00,93.6,28.9,29.94,NNE,23,9.8,14.3,10,0.00,,,0.00,WUHU216HW,2013-06-12 06:42:00,
2013-06-11 23:47:00,93.6,28.9,29.93,NNW,338,8.1,12.1,10,0.00,,,0.00,WUHU216HW,2013-06-12 06:47:00,
2013-06-11 23:52:00,93.4,28.8,29.93,NNE,23,6.0,12.1,10,0.00,,,0.00,WUHU216HW,2013-06-12 06:52:00,
2013-06-11 23:57:00,93.1,28.5,29.92,NNW,338,5.4,8.1,10,0.00,,,0.00,WUHU216HW,2013-06-12 06:57:00,